Torna al catalogo

THORAD AGENA D DEB

AttivoPO
NORAD 4857·DEBRIS·🇺🇸 United States

Lanciato Apr 8, 1970 da Vandenberg Space Force Base

Loading…

Prossimi Passaggi

TLE

Source: Space-Track
1 04857U 70025EM  26229.72956480  .00001419  00000-0  56405-3 0  9998
2 04857  99.7335 142.7213 0043518 292.3880  67.2691 14.30102390831753

Traccia THORAD AGENA D DEB in tempo reale con AllMySat

Download on the App Store